YAOGAN 16A

Satellite information

Favourite Embed

Satellite Type and Status

PAYLOADIN ORBIT

Key statistics

Satellite YAOGAN 16A at a glance.

Uptime

4766

Days in orbit

Revolutions

≈ 13.5

Per day

Orbit

LEO

Low Earth Orbit

Inclination

63.4

Latest

Satellite identification and parameters

Extended collection of information and parameters for YAOGAN 16A.

Object identification

Identified? True

Debris? False

Object name: YAOGAN 16A

International designator: 2012-066A

Object number (NORAD): 39011

Object ID (CCSDS): 39011

Country: PEOPLES REPUBLIC OF CHINA (PRC)

Current information (Y/N): Y

RCS size: LARGE

Orbital parameters

Period: 107.025 minutes

Inclination: 63.3571 deg

SMA: 7467.05 km

Apoapsis: 1402.644 km

Periapsis: 775.185 km

RAAN: 52.5181 deg

Eccentricy: 0.04201517

Argument of periapsis: 25.6112 deg

Mean anomaly: 336.5085 deg

Mean motion: 13.4548603 rev/day

Mean motion (dot): -0.00000024 rev/day2

B* drag term: 0.00006605223 1/REarth

Two-line elements (TLE)

Creation date: Dec. 12, 2025, 10:14 a.m.

Reference frame: TEME

Reference center: EARTH

Epoch: Dec. 12, 2025, 6:16 a.m. UTC

TLE line 0: 0 YAOGAN 16A

TLE line 1: 1 39011U 12066A 25346.26139747 -.00000024 00000-0 66052-4 0 9998

TLE line 2: 2 39011 63.3571 52.5181 0420152 25.6112 336.5085 13.45486030640996

Live tracking on map

Real-time ground track for satellite YAOGAN 16A.

In-orbit conjunctions

There are no conjunctions computed for YAOGAN 16A, at the moment. Check back to stay up to date, as we update our databases every day.

Go to all conjunctions

Associated space launch

YAOGAN 16A was lifted into orbit during the mission ‘Long March 4C | Yaogan 16A, Yaogan 16B, Yaogan 16C’, on board a Long March 4C space rocket.

The launch took place on Nov. 25, 2012, 4:06 a.m. from Launch Area 94 (SLS-2 / 603).

For more information about the launch, click the button.

Launch to space Long March 4C | Yaogan 16A, Yaogan 16B, Yaogan 16C
Long March 4C | Yaogan 16A, Yaogan 16B, Yaogan 16C

Agency: N/A

Status: Launch Successful

Launch date: Nov. 25, 2012, 4:06 a.m. UTC

Rocket: Long March 4C

Launch pad: Launch Area 94 (SLS-2 / 603)

Location: Jiuquan Satellite Launch Center, People's Republic of China

...

Latest news about this satellite

There are no fresh news available about this satellite. Check back as we update our databases every day.


Newsletter sign-up

Weekly statistics, charts and insights to help you stay on top of the space industry.